owner,sensor,date,latitude,longitude,vertical_datum,wind_speed,wind_to_direction,wind_speed_of_gust,qcFlag 
TABS,ioos:station:wmo:42047:1,2010-04-01T00:00:00Z,27.8966,-93.5973,4.0,4.948747316,144.1261406,5.57,'11111222,11111222,11111222' 
TABS,ioos:station:wmo:42047:1,2010-04-01T00:30:00Z,27.8966,-93.5973,4.0,5.12445119,143.8907182,6.0,'11111222,11111222,11111222' 
TABS,ioos:station:wmo:42047:1,2010-04-01T01:00:00Z,27.8966,-93.5973,4.0,5.414000369,143.1092333,6.01,'11111222,11111222,11111222' 
TABS,ioos:station:wmo:42047:1,2010-04-01T01:30:00Z,27.8966,-93.5973,4.0,6.166360353,140.5278429,6.97,'11111222,11111222,11111222' 
TABS,ioos:station:wmo:42047:1,2010-04-01T02:00:00Z,27.8966,-93.5973,4.0,6.061394229,141.901473,6.83,'11111222,11111222,11111222' 
TABS,ioos:station:wmo:42047:1,2010-04-01T02:30:00Z,27.8966,-93.5973,4.0,6.330955694,144.1259578,7.1,'11111222,11111222,11111222' 
TABS,ioos:station:wmo:42047:1,2010-04-01T03:00:00Z,27.8966,-93.5973,4.0,5.722945046,144.1716593,6.5,'11111222,11111222,11111222' 
TABS,ioos:station:wmo:42047:1,2010-04-01T03:30:00Z,27.8966,-93.5973,4.0,5.868730698,146.2560671,6.69,'11111222,11111222,11111222' 
TABS,ioos:station:wmo:42047:1,2010-04-01T04:00:00Z,27.8966,-93.5973,4.0,5.925175103,144.2715186,6.66,'11111222,11111222,11111222' 
TABS,ioos:station:wmo:42047:1,2010-04-01T04:30:00Z,27.8966,-93.5973,4.0,7.250103448,146.7047532,8.33,'11111222,11111222,11111222' 
TABS,ioos:station:wmo:42047:1,2010-04-01T05:00:00Z,27.8966,-93.5973,4.0,6.34895267,149.3151091,7.55,'11111222,11111222,11111222' 
TABS,ioos:station:wmo:42047:1,2010-04-01T05:30:00Z,27.8966,-93.5973,4.0,5.482089018,156.5683758,6.26,'11111222,11111222,11111222' 
TABS,ioos:station:wmo:42047:1,2010-04-01T06:00:00Z,27.8966,-93.5973,4.0,5.568931675,154.5855818,6.46,'11111222,11111222,11111222' 
TABS,ioos:station:wmo:42047:1,2010-04-01T06:30:00Z,27.8966,-93.5973,4.0,5.943037944,155.5483341,6.87,'11111222,11111222,11111222' 
TABS,ioos:station:wmo:42047:1,2010-04-01T07:00:00Z,27.8966,-93.5973,4.0,5.943954912,154.1680828,7.11,'11111222,11111222,11111222' 
TABS,ioos:station:wmo:42047:1,2010-04-01T07:30:00Z,27.8966,-93.5973,4.0,6.364314574,149.0828445,7.89,'11111222,11111222,11111222' 
TABS,ioos:station:wmo:42047:1,2010-04-01T08:00:00Z,27.8966,-93.5973,4.0,5.654882846,149.8532424,6.42,'11111222,11111222,11111222' 
TABS,ioos:station:wmo:42047:1,2010-04-01T08:30:00Z,27.8966,-93.5973,4.0,5.747390712,158.5690933,6.52,'11111222,11111222,11111222' 
TABS,ioos:station:wmo:42047:1,2010-04-01T09:00:00Z,27.8966,-93.5973,4.0,5.806065794,161.9397808,6.79,'11111222,11111222,11111222' 
TABS,ioos:station:wmo:42047:1,2010-04-01T09:30:00Z,27.8966,-93.5973,4.0,5.066162256,157.4847936,5.96,'11111222,11111222,11111222' 
TABS,ioos:station:wmo:42047:1,2010-04-01T10:00:00Z,27.8966,-93.5973,4.0,3.889897171,169.9325267,4.63,'11111222,11111222,11111222' 
TABS,ioos:station:wmo:42047:1,2010-04-01T10:30:00Z,27.8966,-93.5973,4.0,5.823409654,165.5821936,7.53,'11111222,11111222,11111222' 
TABS,ioos:station:wmo:42047:1,2010-04-01T11:00:00Z,27.8966,-93.5973,4.0,4.92354547,165.6535338,6.08,'11111222,11111222,11111222' 
TABS,ioos:station:wmo:42047:1,2010-04-01T11:30:00Z,27.8966,-93.5973,4.0,5.008283139,159.792348,5.7,'11111222,11111222,11111222' 
TABS,ioos:station:wmo:42047:1,2010-04-01T12:00:00Z,27.8966,-93.5973,4.0,5.129337189,167.6168214,6.56,'11111222,11111222,11111222' 
TABS,ioos:station:wmo:42047:1,2010-04-01T12:30:00Z,27.8966,-93.5973,4.0,5.760876669,152.501136,7.2,'11111222,11111222,11111222' 
TABS,ioos:station:wmo:42047:1,2010-04-01T13:00:00Z,27.8966,-93.5973,4.0,5.043857651,161.7449143,5.9,'11111222,11111222,11111222' 
TABS,ioos:station:wmo:42047:1,2010-04-01T13:30:00Z,27.8966,-93.5973,4.0,4.602445002,162.9432848,5.55,'11111222,11111222,11111222' 
TABS,ioos:station:wmo:42047:1,2010-04-01T14:00:00Z,27.8966,-93.5973,4.0,4.397556139,156.4081898,4.87,'11111222,11111222,11111222' 
TABS,ioos:station:wmo:42047:1,2010-04-01T14:30:00Z,27.8966,-93.5973,4.0,4.271826307,154.6349548,4.72,'11111222,11111222,11111222' 
TABS,ioos:station:wmo:42047:1,2010-04-01T15:00:00Z,27.8966,-93.5973,4.0,4.665029475,146.2761577,5.32,'11111222,11111222,11111222' 
TABS,ioos:station:wmo:42047:1,2010-04-01T15:30:00Z,27.8966,-93.5973,4.0,5.431804488,141.6534904,6.03,'11111222,11111222,11111222' 
TABS,ioos:station:wmo:42047:1,2010-04-01T16:00:00Z,27.8966,-93.5973,4.0,5.263078947,141.1704764,5.84,'11111222,11111222,11111222' 
TABS,ioos:station:wmo:42047:1,2010-04-01T16:30:00Z,27.8966,-93.5973,4.0,5.586054063,145.7981591,6.22,'11111222,11111222,11111222' 
TABS,ioos:station:wmo:42047:1,2010-04-01T17:00:00Z,27.8966,-93.5973,4.0,5.927098784,145.9348696,6.67,'11111222,11111222,11111222' 
TABS,ioos:station:wmo:42047:1,2010-04-01T17:30:00Z,27.8966,-93.5973,4.0,6.158912242,144.1165534,6.87,'11111222,11111222,11111222' 
TABS,ioos:station:wmo:42047:1,2010-04-01T18:00:00Z,27.8966,-93.5973,4.0,5.971473855,146.6827845,6.89,'11111222,11111222,11111222' 
TABS,ioos:station:wmo:42047:1,2010-04-01T18:30:00Z,27.8966,-93.5973,4.0,5.755006516,141.2782993,6.39,'11111222,11111222,11111222' 
TABS,ioos:station:wmo:42047:1,2010-04-01T19:00:00Z,27.8966,-93.5973,4.0,5.67965668,136.3557505,6.38,'11111222,11111222,11111222' 
TABS,ioos:station:wmo:42047:1,2010-04-01T19:30:00Z,27.8966,-93.5973,4.0,5.945359535,131.2497101,6.81,'11111222,11111222,11111222' 
TABS,ioos:station:wmo:42047:1,2010-04-01T20:00:00Z,27.8966,-93.5973,4.0,6.110057283,129.4216925,6.96,'11111222,11111222,11111222' 
TABS,ioos:station:wmo:42047:1,2010-04-01T20:30:00Z,27.8966,-93.5973,4.0,6.559641759,129.2467165,7.41,'11111222,11111222,11111222' 
TABS,ioos:station:wmo:42047:1,2010-04-01T21:00:00Z,27.8966,-93.5973,4.0,6.136138851,128.3830686,7.2,'11111222,11111222,11111222' 
TABS,ioos:station:wmo:42047:1,2010-04-01T21:30:00Z,27.8966,-93.5973,4.0,6.12147858,123.0673733,6.86,'11111222,11111222,11111222' 
TABS,ioos:station:wmo:42047:1,2010-04-01T22:00:00Z,27.8966,-93.5973,4.0,6.491594565,122.4173826,7.34,'11111222,11111222,11111222' 
TABS,ioos:station:wmo:42047:1,2010-04-01T22:30:00Z,27.8966,-93.5973,4.0,6.928152712,126.4898107,7.79,'11111222,11111222,11111222' 
TABS,ioos:station:wmo:42047:1,2010-04-01T23:00:00Z,27.8966,-93.5973,4.0,7.545945931,125.0172407,8.56,'11111222,11111222,11111222' 
TABS,ioos:station:wmo:42047:1,2010-04-01T23:30:00Z,27.8966,-93.5973,4.0,7.676437976,126.2581865,8.57,'11111222,11111222,11111222' 
TABS,ioos:station:wmo:42047:1,2010-04-02T00:00:00Z,27.8966,-93.5973,4.0,7.858123186,127.1910496,8.57,'11111222,11111222,11111222' 
TABS,ioos:station:wmo:42047:1,2010-04-02T00:30:00Z,27.8966,-93.5973,4.0,8.049708069,129.9608255,9.15,'11111222,11111222,11111222' 
TABS,ioos:station:wmo:42047:1,2010-04-02T01:00:00Z,27.8966,-93.5973,4.0,7.509806922,135.5398068,8.32,'11111222,11111222,11111222' 
TABS,ioos:station:wmo:42047:1,2010-04-02T01:30:00Z,27.8966,-93.5973,4.0,6.419501538,147.5975476,7.38,'11111222,11111222,11111222' 
TABS,ioos:station:wmo:42047:1,2010-04-02T02:00:00Z,27.8966,-93.5973,4.0,6.358089336,145.1854517,7.26,'11111222,11111222,11111222' 
TABS,ioos:station:wmo:42047:1,2010-04-02T02:30:00Z,27.8966,-93.5973,4.0,6.811754546,139.7639462,7.64,'11111222,11111222,11111222' 
TABS,ioos:station:wmo:42047:1,2010-04-02T03:00:00Z,27.8966,-93.5973,4.0,8.226961772,136.6256374,9.15,'11111222,11111222,11111222' 
TABS,ioos:station:wmo:42047:1,2010-04-02T03:30:00Z,27.8966,-93.5973,4.0,7.146054856,142.9059,7.93,'11111222,11111222,11111222' 
TABS,ioos:station:wmo:42047:1,2010-04-02T04:00:00Z,27.8966,-93.5973,4.0,7.316788913,141.5483948,8.19,'11111222,11111222,11111222' 
TABS,ioos:station:wmo:42047:1,2010-04-02T04:30:00Z,27.8966,-93.5973,4.0,7.492349431,136.8932505,8.33,'11111222,11111222,11111222' 
TABS,ioos:station:wmo:42047:1,2010-04-02T05:00:00Z,27.8966,-93.5973,4.0,7.983389005,134.6450771,8.77,'11111222,11111222,11111222' 
TABS,ioos:station:wmo:42047:1,2010-04-02T05:30:00Z,27.8966,-93.5973,4.0,8.096375732,135.0503555,9.27,'11111222,11111222,11111222' 
TABS,ioos:station:wmo:42047:1,2010-04-02T06:00:00Z,27.8966,-93.5973,4.0,8.485858825,134.3318968,9.7,'11111222,11111222,11111222' 
TABS,ioos:station:wmo:42047:1,2010-04-02T06:30:00Z,27.8966,-93.5973,4.0,8.591070946,138.2559989,10.26,'11111222,11111222,11111222' 
TABS,ioos:station:wmo:42047:1,2010-04-02T07:00:00Z,27.8966,-93.5973,4.0,8.858583408,138.0659785,9.89,'11111222,11111222,11111222' 
TABS,ioos:station:wmo:42047:1,2010-04-02T07:30:00Z,27.8966,-93.5973,4.0,8.648011332,143.0376448,9.53,'11111222,11111222,11111222' 
TABS,ioos:station:wmo:42047:1,2010-04-02T08:00:00Z,27.8966,-93.5973,4.0,8.672081642,144.385812,10.21,'11111222,11111222,11111222' 
TABS,ioos:station:wmo:42047:1,2010-04-02T08:30:00Z,27.8966,-93.5973,4.0,8.90571165,146.3102217,10.68,'11111222,11111222,11111222' 
TABS,ioos:station:wmo:42047:1,2010-04-02T09:00:00Z,27.8966,-93.5973,4.0,9.520357136,141.3968859,11.0,'11111222,11111222,11111222' 
TABS,ioos:station:wmo:42047:1,2010-04-02T09:30:00Z,27.8966,-93.5973,4.0,9.234738762,139.4797657,10.08,'11111222,11111222,11111222' 
TABS,ioos:station:wmo:42047:1,2010-04-02T10:00:00Z,27.8966,-93.5973,4.0,9.309457557,138.5712124,10.71,'11111222,11111222,11111222' 
TABS,ioos:station:wmo:42047:1,2010-04-02T10:30:00Z,27.8966,-93.5973,4.0,9.619313905,136.3481998,11.32,'11111222,11111222,11111222' 
TABS,ioos:station:wmo:42047:1,2010-04-02T11:00:00Z,27.8966,-93.5973,4.0,9.732933782,138.4156555,11.14,'11111222,11111222,11111222' 
TABS,ioos:station:wmo:42047:1,2010-04-02T11:30:00Z,27.8966,-93.5973,4.0,9.38416219,138.2400084,10.61,'11111222,11111222,11111222' 
TABS,ioos:station:wmo:42047:1,2010-04-02T12:00:00Z,27.8966,-93.5973,4.0,8.113870839,136.6482973,9.53,'11111222,11111222,11111222' 
TABS,ioos:station:wmo:42047:1,2010-04-02T12:30:00Z,27.8966,-93.5973,4.0,8.634535309,137.4409479,9.8,'11111222,11111222,11111222' 
TABS,ioos:station:wmo:42047:1,2010-04-02T13:00:00Z,27.8966,-93.5973,4.0,8.905054744,139.1896488,10.29,'11111222,11111222,11111222' 
TABS,ioos:station:wmo:42047:1,2010-04-02T13:30:00Z,27.8966,-93.5973,4.0,8.546157031,141.8430731,9.7,'11111222,11111222,11111222' 
TABS,ioos:station:wmo:42047:1,2010-04-02T14:00:00Z,27.8966,-93.5973,4.0,7.471204722,139.7234164,8.54,'11111222,11111222,11111222' 
TABS,ioos:station:wmo:42047:1,2010-04-02T14:30:00Z,27.8966,-93.5973,4.0,7.322274237,136.8265147,8.4,'11111222,11111222,11111222' 
TABS,ioos:station:wmo:42047:1,2010-04-02T15:00:00Z,27.8966,-93.5973,4.0,6.464673232,139.014482,7.32,'11111222,11111222,11111222' 
TABS,ioos:station:wmo:42047:1,2010-04-02T15:30:00Z,27.8966,-93.5973,4.0,6.844158093,139.4444114,7.82,'11111222,11111222,11111222' 
TABS,ioos:station:wmo:42047:1,2010-04-02T16:00:00Z,27.8966,-93.5973,4.0,6.428063472,132.2260449,7.34,'11111222,11111222,11111222' 
TABS,ioos:station:wmo:42047:1,2010-04-02T16:30:00Z,27.8966,-93.5973,4.0,6.648623918,136.3410328,7.56,'11111222,11111222,11111222' 
TABS,ioos:station:wmo:42047:1,2010-04-02T17:00:00Z,27.8966,-93.5973,4.0,6.628340667,136.6508541,7.39,'11111222,11111222,11111222' 
TABS,ioos:station:wmo:42047:1,2010-04-02T17:30:00Z,27.8966,-93.5973,4.0,6.895339005,134.0014159,7.69,'11111222,11111222,11111222' 
TABS,ioos:station:wmo:42047:1,2010-04-02T18:00:00Z,27.8966,-93.5973,4.0,6.944674218,137.7432696,7.83,'11111222,11111222,11111222' 
TABS,ioos:station:wmo:42047:1,2010-04-02T18:30:00Z,27.8966,-93.5973,4.0,7.00746031,138.6451642,8.19,'11111222,11111222,11111222' 
TABS,ioos:station:wmo:42047:1,2010-04-02T19:00:00Z,27.8966,-93.5973,4.0,7.605662364,141.3522576,8.36,'11111222,11111222,11111222' 
TABS,ioos:station:wmo:42047:1,2010-04-02T19:30:00Z,27.8966,-93.5973,4.0,7.122990945,139.669477,7.91,'11111222,11111222,11111222' 
TABS,ioos:station:wmo:42047:1,2010-04-02T20:00:00Z,27.8966,-93.5973,4.0,7.034202158,141.6966776,7.95,'11111222,11111222,11111222' 
TABS,ioos:station:wmo:42047:1,2010-04-02T20:30:00Z,27.8966,-93.5973,4.0,6.952877102,138.9074065,7.58,'11111222,11111222,11111222' 
TABS,ioos:station:wmo:42047:1,2010-04-02T21:00:00Z,27.8966,-93.5973,4.0,6.007903128,139.5231391,6.69,'11111222,11111222,11111222' 
TABS,ioos:station:wmo:42047:1,2010-04-02T21:30:00Z,27.8966,-93.5973,4.0,5.421807817,144.6100313,6.08,'11111222,11111222,11111222' 
TABS,ioos:station:wmo:42047:1,2010-04-02T22:00:00Z,27.8966,-93.5973,4.0,5.500227268,142.6095439,5.95,'11111222,11111222,11111222' 
TABS,ioos:station:wmo:42047:1,2010-04-02T22:30:00Z,27.8966,-93.5973,4.0,4.513679209,150.5388044,5.09,'11111222,11111222,11111222' 
TABS,ioos:station:wmo:42047:1,2010-04-02T23:00:00Z,27.8966,-93.5973,4.0,4.332216523,146.200179,4.97,'11111222,11111222,11111222' 
TABS,ioos:station:wmo:42047:1,2010-04-02T23:30:00Z,27.8966,-93.5973,4.0,5.218524696,142.3179051,5.8,'11111222,11111222,11111222' 
TABS,ioos:station:wmo:42047:1,2010-04-03T00:00:00Z,27.8966,-93.5973,4.0,5.01662237,139.770653,5.7,'11111222,11111222,11111222' 
TABS,ioos:station:wmo:42047:1,2010-04-03T00:30:00Z,27.8966,-93.5973,4.0,4.902295381,144.8837998,5.5,'11111222,11111222,11111222' 
TABS,ioos:station:wmo:42047:1,2010-04-03T01:00:00Z,27.8966,-93.5973,4.0,5.784980553,140.7527069,6.47,'11111222,11111222,11111222' 
TABS,ioos:station:wmo:42047:1,2010-04-03T01:30:00Z,27.8966,-93.5973,4.0,5.796455814,139.6884885,7.41,'11111222,11111222,11111222' 
TABS,ioos:station:wmo:42047:1,2010-04-03T02:00:00Z,27.8966,-93.5973,4.0,3.483733629,146.948841,4.25,'11111222,11111222,11111222' 
TABS,ioos:station:wmo:42047:1,2010-04-03T02:30:00Z,27.8966,-93.5973,4.0,4.048913434,144.3474653,4.39,'11111222,11111222,11111222' 
TABS,ioos:station:wmo:42047:1,2010-04-03T03:00:00Z,27.8966,-93.5973,4.0,4.837189267,145.7845883,5.37,'11111222,11111222,11111222' 
TABS,ioos:station:wmo:42047:1,2010-04-03T03:30:00Z,27.8966,-93.5973,4.0,6.051784861,146.3889966,6.68,'11111222,11111222,11111222' 
TABS,ioos:station:wmo:42047:1,2010-04-03T04:00:00Z,27.8966,-93.5973,4.0,6.969512178,147.8380475,7.82,'11111222,11111222,11111222' 
TABS,ioos:station:wmo:42047:1,2010-04-03T04:30:00Z,27.8966,-93.5973,4.0,6.025653492,150.0313123,6.73,'11111222,11111222,11111222' 
TABS,ioos:station:wmo:42047:1,2010-04-03T05:00:00Z,27.8966,-93.5973,4.0,6.354352839,150.4902615,7.35,'11111222,11111222,11111222' 
TABS,ioos:station:wmo:42047:1,2010-04-03T05:30:00Z,27.8966,-93.5973,4.0,4.801770507,155.5168122,5.44,'11111222,11111222,11111222' 
TABS,ioos:station:wmo:42047:1,2010-04-03T06:00:00Z,27.8966,-93.5973,4.0,4.694699138,159.9441626,5.1,'11111222,11111222,11111222' 
TABS,ioos:station:wmo:42047:1,2010-04-03T06:30:00Z,27.8966,-93.5973,4.0,4.513103145,157.1850842,5.24,'11111222,11111222,11111222' 
TABS,ioos:station:wmo:42047:1,2010-04-03T07:00:00Z,27.8966,-93.5973,4.0,2.610823625,171.1873294,3.12,'11111222,11111222,11111222' 
TABS,ioos:station:wmo:42047:1,2010-04-03T07:30:00Z,27.8966,-93.5973,4.0,1.80346888,277.0067833,2.39,'11111222,11111222,11111222' 
TABS,ioos:station:wmo:42047:1,2010-04-03T08:00:00Z,27.8966,-93.5973,4.0,0.40607881,279.9262223,1.01,'11111222,11111222,11111222' 
TABS,ioos:station:wmo:42047:1,2010-04-03T08:30:00Z,27.8966,-93.5973,4.0,1.055888252,151.7362724,1.63,'11111222,11111222,11111222' 
TABS,ioos:station:wmo:42047:1,2010-04-03T09:00:00Z,27.8966,-93.5973,4.0,0.466904701,170.1344266,1.13,'11111222,11111222,11111222' 
TABS,ioos:station:wmo:42047:1,2010-04-03T09:30:00Z,27.8966,-93.5973,4.0,1.051189802,117.7842824,1.79,'11111222,11111222,11111222' 
TABS,ioos:station:wmo:42047:1,2010-04-03T10:00:00Z,27.8966,-93.5973,4.0,1.722846482,352.9985384,2.22,'11111222,11111222,11111222' 
TABS,ioos:station:wmo:42047:1,2010-04-03T10:30:00Z,27.8966,-93.5973,4.0,1.876406139,336.4404037,2.18,'11111222,11111222,11111222' 
TABS,ioos:station:wmo:42047:1,2010-04-03T11:00:00Z,27.8966,-93.5973,4.0,1.184060809,344.3203021,1.35,'11111222,11111222,11111222' 
TABS,ioos:station:wmo:42047:1,2010-04-03T11:30:00Z,27.8966,-93.5973,4.0,1.482464165,23.45206926,1.7,'11111222,11111222,11111222' 
TABS,ioos:station:wmo:42047:1,2010-04-03T12:00:00Z,27.8966,-93.5973,4.0,1.348480626,35.33981382,1.68,'11111222,11111222,11111222' 
TABS,ioos:station:wmo:42047:1,2010-04-03T12:30:00Z,27.8966,-93.5973,4.0,1.399464183,103.6394411,1.74,'11111222,11111222,11111222' 
TABS,ioos:station:wmo:42047:1,2010-04-03T13:00:00Z,27.8966,-93.5973,4.0,1.660481858,91.38077176,1.94,'11111222,11111222,11111222' 
TABS,ioos:station:wmo:42047:1,2010-04-03T13:30:00Z,27.8966,-93.5973,4.0,2.221215883,106.4772638,2.48,'11111222,11111222,11111222' 
TABS,ioos:station:wmo:42047:1,2010-04-03T14:00:00Z,27.8966,-93.5973,4.0,1.990025125,89.71166369,2.32,'11111222,11111222,11111222' 
TABS,ioos:station:wmo:42047:1,2010-04-03T14:30:00Z,27.8966,-93.5973,4.0,2.666552081,99.49804507,3.04,'11111222,11111222,11111222' 
TABS,ioos:station:wmo:42047:1,2010-04-03T15:00:00Z,27.8966,-93.5973,4.0,2.469412886,98.85240432,2.81,'11111222,11111222,11111222' 
TABS,ioos:station:wmo:42047:1,2010-04-03T15:30:00Z,27.8966,-93.5973,4.0,1.463283978,68.34364069,1.67,'11111222,11111222,11111222' 
TABS,ioos:station:wmo:42047:1,2010-04-03T16:00:00Z,27.8966,-93.5973,4.0,1.916350699,71.75376722,2.19,'11111222,11111222,11111222' 
TABS,ioos:station:wmo:42047:1,2010-04-03T16:30:00Z,27.8966,-93.5973,4.0,2.329978541,78.11094884,2.68,'11111222,11111222,11111222' 
TABS,ioos:station:wmo:42047:1,2010-04-03T17:00:00Z,27.8966,-93.5973,4.0,3.1503968,90.90979924,3.59,'11111222,11111222,11111222' 
TABS,ioos:station:wmo:42047:1,2010-04-03T17:30:00Z,27.8966,-93.5973,4.0,3.68708557,101.7369888,4.07,'11111222,11111222,11111222' 
TABS,ioos:station:wmo:42047:1,2010-04-03T18:00:00Z,27.8966,-93.5973,4.0,3.307748479,99.74748826,3.64,'11111222,11111222,11111222' 
TABS,ioos:station:wmo:42047:1,2010-04-03T18:30:00Z,27.8966,-93.5973,4.0,3.676955262,104.4901496,4.07,'11111222,11111222,11111222' 
TABS,ioos:station:wmo:42047:1,2010-04-03T19:00:00Z,27.8966,-93.5973,4.0,3.560014045,89.83863668,4.09,'11111222,11111222,11111222' 
TABS,ioos:station:wmo:42047:1,2010-04-03T19:30:00Z,27.8966,-93.5973,4.0,3.016637201,97.62014867,3.26,'11111222,11111222,11111222' 
TABS,ioos:station:wmo:42047:1,2010-04-03T20:00:00Z,27.8966,-93.5973,4.0,3.208254977,94.11147591,3.51,'11111222,11111222,11111222' 
TABS,ioos:station:wmo:42047:1,2010-04-03T20:30:00Z,27.8966,-93.5973,4.0,3.160142402,89.45564942,3.62,'11111222,11111222,11111222' 
TABS,ioos:station:wmo:42047:1,2010-04-03T21:00:00Z,27.8966,-93.5973,4.0,3.152284886,87.81794278,3.57,'11111222,11111222,11111222' 
TABS,ioos:station:wmo:42047:1,2010-04-03T21:30:00Z,27.8966,-93.5973,4.0,3.858756276,84.34809742,4.3,'11111222,11111222,11111222' 
TABS,ioos:station:wmo:42047:1,2010-04-03T22:00:00Z,27.8966,-93.5973,4.0,3.384272448,92.8797283,3.89,'11111222,11111222,11111222' 
TABS,ioos:station:wmo:42047:1,2010-04-03T22:30:00Z,27.8966,-93.5973,4.0,4.311473066,83.07237716,4.73,'11111222,11111222,11111222' 
TABS,ioos:station:wmo:42047:1,2010-04-03T23:00:00Z,27.8966,-93.5973,4.0,4.359002179,86.31666427,5.09,'11111222,11111222,11111222' 
TABS,ioos:station:wmo:42047:1,2010-04-03T23:30:00Z,27.8966,-93.5973,4.0,4.529944812,86.20234008,5.02,'11111222,11111222,11111222' 
TABS,ioos:station:wmo:42047:1,2010-04-04T00:00:00Z,27.8966,-93.5973,4.0,4.540011013,89.87337742,4.95,'11111222,11111222,11111222' 
TABS,ioos:station:wmo:42047:1,2010-04-04T00:30:00Z,27.8966,-93.5973,4.0,4.430101579,89.61157838,4.74,'11111222,11111222,11111222' 
TABS,ioos:station:wmo:42047:1,2010-04-04T01:00:00Z,27.8966,-93.5973,4.0,4.447920863,101.4113774,4.86,'11111222,11111222,11111222' 
TABS,ioos:station:wmo:42047:1,2010-04-04T01:30:00Z,27.8966,-93.5973,4.0,4.721747558,100.001348,5.14,'11111222,11111222,11111222' 
TABS,ioos:station:wmo:42047:1,2010-04-04T02:00:00Z,27.8966,-93.5973,4.0,4.241992456,101.283838,4.74,'11111222,11111222,11111222' 
TABS,ioos:station:wmo:42047:1,2010-04-04T02:30:00Z,27.8966,-93.5973,4.0,4.69754191,100.4252454,5.13,'11111222,11111222,11111222' 
TABS,ioos:station:wmo:42047:1,2010-04-04T03:00:00Z,27.8966,-93.5973,4.0,5.290982895,102.775858,5.76,'11111222,11111222,11111222' 
TABS,ioos:station:wmo:42047:1,2010-04-04T03:30:00Z,27.8966,-93.5973,4.0,5.576029053,104.4353769,6.02,'11111222,11111222,11111222' 
TABS,ioos:station:wmo:42047:1,2010-04-04T04:00:00Z,27.8966,-93.5973,4.0,5.490400714,106.2898073,6.15,'11111222,11111222,11111222' 
TABS,ioos:station:wmo:42047:1,2010-04-04T04:30:00Z,27.8966,-93.5973,4.0,5.134608067,114.0195037,5.6,'11111222,11111222,11111222' 
TABS,ioos:station:wmo:42047:1,2010-04-04T05:00:00Z,27.8966,-93.5973,4.0,5.513846208,120.5185802,6.01,'11111222,11111222,11111222' 
TABS,ioos:station:wmo:42047:1,2010-04-04T05:30:00Z,27.8966,-93.5973,4.0,5.977064497,129.2290342,6.68,'11111222,11111222,11111222' 
TABS,ioos:station:wmo:42047:1,2010-04-04T06:00:00Z,27.8966,-93.5973,4.0,5.823512686,130.473562,6.39,'11111222,11111222,11111222' 
TABS,ioos:station:wmo:42047:1,2010-04-04T06:30:00Z,27.8966,-93.5973,4.0,5.904853936,134.2455664,6.64,'11111222,11111222,11111222' 
TABS,ioos:station:wmo:42047:1,2010-04-04T07:00:00Z,27.8966,-93.5973,4.0,5.366600414,137.8702541,5.96,'11111222,11111222,11111222' 
TABS,ioos:station:wmo:42047:1,2010-04-04T07:30:00Z,27.8966,-93.5973,4.0,5.308125846,137.4434481,5.85,'11111222,11111222,11111222' 
TABS,ioos:station:wmo:42047:1,2010-04-04T08:00:00Z,27.8966,-93.5973,4.0,4.698137929,143.5694375,5.24,'11111222,11111222,11111222' 
TABS,ioos:station:wmo:42047:1,2010-04-04T08:30:00Z,27.8966,-93.5973,4.0,5.539115453,145.5929877,6.03,'11111222,11111222,11111222' 
TABS,ioos:station:wmo:42047:1,2010-04-04T09:00:00Z,27.8966,-93.5973,4.0,6.43904496,144.1626413,7.02,'11111222,11111222,11111222' 
TABS,ioos:station:wmo:42047:1,2010-04-04T09:30:00Z,27.8966,-93.5973,4.0,5.295025968,153.2900469,5.78,'11111222,11111222,11111222' 
TABS,ioos:station:wmo:42047:1,2010-04-04T10:00:00Z,27.8966,-93.5973,4.0,5.110469646,155.4913623,5.64,'11111222,11111222,11111222' 
TABS,ioos:station:wmo:42047:1,2010-04-04T10:30:00Z,27.8966,-93.5973,4.0,4.033856715,157.2492873,4.4,'11111222,11111222,11111222' 
TABS,ioos:station:wmo:42047:1,2010-04-04T11:00:00Z,27.8966,-93.5973,4.0,2.997482277,159.08626,3.31,'11111222,11111222,11111222' 
TABS,ioos:station:wmo:42047:1,2010-04-04T11:30:00Z,27.8966,-93.5973,4.0,2.39081576,160.9590242,2.52,'11111222,11111222,11111222' 
TABS,ioos:station:wmo:42047:1,2010-04-04T12:00:00Z,27.8966,-93.5973,4.0,2.065163432,160.7756751,2.24,'11111222,11111222,11111222' 
TABS,ioos:station:wmo:42047:1,2010-04-04T12:30:00Z,27.8966,-93.5973,4.0,1.796357425,140.1947324,1.92,'11111222,11111222,11111222' 
TABS,ioos:station:wmo:42047:1,2010-04-04T13:00:00Z,27.8966,-93.5973,4.0,1.581518258,80.537279,1.9,'11111222,11111222,11111222' 
TABS,ioos:station:wmo:42047:1,2010-04-04T13:30:00Z,27.8966,-93.5973,4.0,2.360783768,80.73677557,2.59,'11111222,11111222,11111222' 
TABS,ioos:station:wmo:42047:1,2010-04-04T14:00:00Z,27.8966,-93.5973,4.0,2.783379241,82.56818849,3.13,'11111222,11111222,11111222' 
TABS,ioos:station:wmo:42047:1,2010-04-04T14:30:00Z,27.8966,-93.5973,4.0,3.096578757,84.06806603,3.47,'11111222,11111222,11111222' 
TABS,ioos:station:wmo:42047:1,2010-04-04T15:00:00Z,27.8966,-93.5973,4.0,3.364297847,92.89683794,3.81,'11111222,11111222,11111222' 
TABS,ioos:station:wmo:42047:1,2010-04-04T15:30:00Z,27.8966,-93.5973,4.0,3.545645216,93.23402548,3.88,'11111222,11111222,11111222' 
TABS,ioos:station:wmo:42047:1,2010-04-04T16:00:00Z,27.8966,-93.5973,4.0,2.802159881,87.74983564,3.09,'11111222,11111222,11111222' 
TABS,ioos:station:wmo:42047:1,2010-04-04T16:30:00Z,27.8966,-93.5973,4.0,2.932456308,95.28328411,3.26,'11111222,11111222,11111222' 
TABS,ioos:station:wmo:42047:1,2010-04-04T17:00:00Z,27.8966,-93.5973,4.0,3.022002647,87.91357377,3.39,'11111222,11111222,11111222' 
TABS,ioos:station:wmo:42047:1,2010-04-04T17:30:00Z,27.8966,-93.5973,4.0,2.872368361,74.65702185,3.19,'11111222,11111222,11111222' 
TABS,ioos:station:wmo:42047:1,2010-04-04T18:00:00Z,27.8966,-93.5973,4.0,3.467016008,67.79927502,4.27,'11111222,11111222,11111222' 
TABS,ioos:station:wmo:42047:1,2010-04-04T18:30:00Z,27.8966,-93.5973,4.0,3.820013089,73.88940066,4.59,'11111222,11111222,11111222' 